Other Public Products
Issued by NWS Grand Forks, ND

Home | Current Version | Previous Version | Graphics & Text | Print | Product List | Glossary On
Versions: 1 2 3 4 5 6 7 8 9 10 11 12 13 14 15 16 17 18 19 20 21 22 23 24 25 26 27 28 29 30 31 32 33 34 35 36 37 38 39 40 41 42 43 44 45 46 47 48 49 50
000
FPUS83 KFGF 060631
OPUFGF
PRAIRIE TO PINES WEATHER ROUNDUP
NATIONAL WEATHER SERVICE EASTERN NORTH DAKOTA/GRAND FORKS ND
1200 AM CST SAT FEB 06 2016

 **SATELLITE DATA USED TO AUGMENT SKY COVER AT AUTOMATED STATIONS**
 *****  WEATHER ACROSS EASTERN NORTH DAKOTA  *****

CITY           SKY/WX    TMP DP  RH WIND       PRES   REMARKS
GRAND FORKS    CLOUDY    22  17  81 S9        30.03F WCI  12
6HR MIN TEMP:  17; 6HR MAX TEMP:  24;

GRAND FORKS AF CLOUDY    22  18  83 SW8       30.02F WCI  13
GRAND CITY NWS   N/A     21 N/A N/A S7          N/A  WCI  13
BUXTON           N/A     23  22  96 S7          N/A  WCI  15
DEVILS LAKE    CLOUDY    25  20  81 S7        29.97F WCI  17
6HR MIN TEMP:  18; 6HR MAX TEMP:  25;

FARGO          CLOUDY    21  18  88 S8        30.09F WCI  11
6HR MIN TEMP:  18; 6HR MAX TEMP:  26;

WAHPETON ARPT  CLOUDY   N/A N/A N/A SE5       30.11F
$$

 *****  WEATHER ACROSS CENTRAL AND WESTERN NORTH DAKOTA  *****

CITY           SKY/WX    TMP DP  RH WIND       PRES   REMARKS
JAMESTOWN      PTCLDY    23  18  81 SW7       30.01F WCI  15
6HR MIN TEMP:  20; 6HR MAX TEMP:  28;

BISMARCK       CLEAR     24  19  81 E3        30.01F
6HR MIN TEMP:  24; 6HR MAX TEMP:  37;

MINOT          CLOUDY    34  23  64 SW10      29.90F
6HR MIN TEMP:  31; 6HR MAX TEMP:  36;

MINOT AFB      CLOUDY    28  26  91 CALM      29.89F
6HR MIN TEMP:  26; 6HR MAX TEMP:  31;

GARRISON         N/A     23  20  88 S5        29.95F WCI  17
6HR MIN TEMP:  22; 6HR MAX TEMP:  33;

WILLISTON      CLEAR     27  22  81 S7        29.90F WCI  19
6HR MIN TEMP:  24; 6HR MAX TEMP:  35;

DICKINSON      MOCLDY    31  21  66 SW15      29.95F WCI  20
6HR MIN TEMP:  28; 6HR MAX TEMP:  33;

HETTINGER      PTCLDY    28  20  71 SW7       30.04F WCI  21
6HR MIN TEMP:  23; 6HR MAX TEMP:  34;

$$

 *****  OTHER OBSERVATIONS NORTHEAST NORTH DAKOTA  *****

CITY           SKY/WX    TMP DP  RH WIND       PRES   REMARKS
WALHALLA       FAIR      18  18 100 SE5       29.98F WCI  11
LANGDON        FAIR      14  10  85 S8        29.95F WCI   3
CAVALIER       FAIR      18  16  93 S7        29.99F WCI   8
GRAFTON        FAIR      18  16  93 S6        30.02F WCI   9
CANDO          FAIR      16  16 100 SE7       29.96F WCI   6
FORT TOTTEN      N/A     23  19  84 SE3       29.95S
ROLLA          MOCLDY    23  19  86 S6        29.91F WCI  16
RUGBY          FAIR      27  25  93 S8        29.92F WCI  18
 ***** THE ABOVE OBSERVATIONS ARE NON NWS ARE NOT QUALITY
        CONTROLLED AND MAY MIS-REPORT RAIN FOR SNOW...
$$

 *****  OTHER OBSERVATIONS SOUTHEAST NORTH DAKOTA *****

CITY           SKY/WX    TMP DP  RH WIND       PRES   REMARKS
COOPERSTOWN    NOT AVBL
VALLEY CITY    CLOUDY    19  19 100 S8        30.04F WCI   9
OAKES          FAIR      23  19  86 S9        30.07F WCI  13
GWINNER          N/A     19  18  93 SW9       30.08F WCI   9
SHEYENNE NWR     N/A     12   9  89 CALM      29.95S
BUFFALO          N/A     25  16  70 SW12        N/A  WCI  14
WYNDMERE       NOT AVBL
 ***** THE ABOVE OBSERVATIONS ARE NON NWS ARE NOT QUALITY
       CONTROLLED AND MAY MIS-REPORT RAIN FOR SNOW...
$$

  *****  WEATHER ACROSS NORTHERN MINNESOTA  *****

CITY           SKY/WX    TMP DP  RH WIND       PRES   REMARKS
FLAG ISLAND    CLOUDY    18  16  93 SW3       30.02R
WARROAD        CLOUDY    18  14  86 CALM      30.02F
ROSEAU         PTCLDY    16  12  86 S6        30.02F WCI   7
HALLOCK        CLOUDY    16  12  86 S8        30.00F WCI   5
THF RVR FALLS  CLOUDY    16  16 100 S8        30.03F WCI   5
6HR MIN TEMP:  10; 6HR MAX TEMP:  18;

HALSTAD          N/A     17  14  88 S8          N/A  WCI   6
FOSSTON        CLOUDY    12  12 100 S6        30.04F FOG     WCI   3
BAUDETTE       CLOUDY    20  14  77 SW6       30.02F WCI  12
6HR MIN TEMP:  20; 6HR MAX TEMP:  23;

WASKISH        CLOUDY    18  16  93 SW3       30.04F
CROOKSTON      CLOUDY    19  18  93 S7        30.05F WCI  10
$$
  *****  WEATHER ACROSS CENTRAL AND WEST MINNESOTA  *****

CITY           SKY/WX    TMP DP  RH WIND       PRES   REMARKS
BEMIDJI        CLOUDY    17  16  93 S3        30.04F
PARK RAPIDS    CLOUDY    20  17  88 SW7       30.07F WCI  11
6HR MIN TEMP:  17; 6HR MAX TEMP:  27;

WADENA         CLOUDY    19  18  93 SW6       30.09F FOG     WCI  11
DETROIT LAKES  FOG       21  21 100 S7        30.07F VSB 1/2 WCI  13
MOORHEAD       CLOUDY    14  12  92 S8        30.09F FOG     WCI   3
FERGUS FALLS   FOG       16  12  86 SE3       30.14F VSB 1
ELBOW LAKE     CLOUDY    11   9  92 CALM      30.12F FOG
MORRIS MN      FOG       10   7  85 S3        30.13S VSB 1/4
STAPLES        CLOUDY    19  18  93 W7        30.10F FOG     WCI  10
WHEATON        PTCLDY    19  19 100 S7        30.14F WCI  10
$$
  *****  WEATHER ELSEWHERE ACROSS MINNESOTA  *****

CITY           SKY/WX    TMP DP  RH WIND       PRES   REMARKS
DULUTH         CLOUDY    22  14  71 W12       30.04F WCI  10
6HR MIN TEMP:  22; 6HR MAX TEMP:  24;

INTRNTL FALLS  CLOUDY    21  15  78 W6        30.03S WCI  13
6HR MIN TEMP:  21; 6HR MAX TEMP:  24;

ELY            CLOUDY    21  18  86 W3        30.01S
CLOQUET        CLOUDY    23  16  74 SW7       30.06S WCI  15
BRAINERD       CLOUDY    22  18  85 SW8       30.10F WCI  12
6HR MIN TEMP:  22; 6HR MAX TEMP:  25;

HIBBING        CLOUDY    23  17  78 W6        30.04S WCI  16
6HR MIN TEMP:  23; 6HR MAX TEMP:  24;

ALEXANDRIA     FOG       24  22  91 SW8       30.12S VSB 1/2 WCI  15
6HR MIN TEMP:  24; 6HR MAX TEMP:  25;

SAINT CLOUD    CLOUDY    23  20  88 SW5       30.13F WCI  17
6HR MIN TEMP:  18; 6HR MAX TEMP:  24;

MINNEAPOLIS    CLOUDY    26  21  81 SW6       30.17F WCI  19
6HR MIN TEMP:  25; 6HR MAX TEMP:  26; 6HR PCP: TRACE;

$$

  *****  WEATHER ACROSS SOUTH DAKOTA  *****

CITY           SKY/WX    TMP DP  RH WIND       PRES   REMARKS
SIOUX FALLS    FOG       22  20  92 CALM      30.19F VSB 3/4
6HR MIN TEMP:  23; 6HR MAX TEMP:  30;

BROOKINGS      FOG       23  22  96 SW7       30.16F VSB 1/2 WCI  15
WATERTOWN      CLOUDY    15  11  83 S5        30.13S WCI   8
6HR MIN TEMP:  16; 6HR MAX TEMP:  21;

HURON          CLEAR     25  21  85 S8        30.15F WCI  16
6HR MIN TEMP:  24; 6HR MAX TEMP:  32;

SISSETON         N/A     18  15  88 S5        30.11F WCI  11
ABERDEEN       CLEAR     20  15  81 S7        30.12F WCI  11
6HR MIN TEMP:  19; 6HR MAX TEMP:  33;

MITCHELL       CLEAR     25  23  92 SW7       30.20F WCI  17
PIERRE         CLEAR     30  24  78 SW12      30.13F WCI  20
6HR MIN TEMP:  27; 6HR MAX TEMP:  34;

MOBRIDGE       CLEAR     28  23  81 SE7       30.05F WCI  21
RAPID CITY     CLEAR     22  15  75 CALM      30.13F
6HR MIN TEMP:  20; 6HR MAX TEMP:  33;

$$

  *****  SOME WEATHER IN NEARBY STATES *****

CITY           SKY/WX    TMP DP  RH WIND       PRES   REMARKS
GLASGOW MT     CLOUDY    34  26  72 W8        29.90F
6HR MIN TEMP:  33; 6HR MAX TEMP:  38;

GREAT FALLS MT MOCLDY    44  21  40 SW31G37   30.00S
6HR MIN TEMP:  40; 6HR MAX TEMP:  44;

CHEYENNE WY    CLEAR     24   9  52 W15       30.21F WCI  11
6HR MIN TEMP:  20; 6HR MAX TEMP:  27;

SCOTTSBLUFF NE CLEAR     13   8  81 N6        30.24F WCI   4
6HR MIN TEMP:  12; 6HR MAX TEMP:  31;

OMAHA NE       MOCLDY    28  28 100 CALM      30.26R FOG
6HR MIN TEMP:  26; 6HR MAX TEMP:  31; 6HR PCP: TRACE;

DES MOINES IA  CLOUDY    31  25  78 SW5       30.26R
6HR MIN TEMP:  29; 6HR MAX TEMP:  31; 6HR PCP:  0.01;

DAVENPORT IA   CLOUDY    28  21  75 S7        30.30F WCI  21
6HR MIN TEMP:  26; 6HR MAX TEMP:  30;

CHICAGO IL     CLOUDY    27  22  81 SW5       30.31S WCI  22
6HR MIN TEMP:  26; 6HR MAX TEMP:  30;

EAU CLAIRE WI  CLOUDY    23  16  74 SW12      30.17F WCI  12
6HR MIN TEMP:  21; 6HR MAX TEMP:  24; 6HR PCP: TRACE;

LA CROSSE WI   CLOUDY    25  18  74 S6        30.24S WCI  18
6HR MIN TEMP:  24; 6HR MAX TEMP:  25;

$$

  *****  SOME NATIONAL WEATHER *****

CITY           SKY/WX    TMP DP  RH WIND       PRES   REMARKS
LA GUARDIA NY  CLEAR     34  17  50 NW12G18   30.33R
6HR MIN TEMP:  34; 6HR MAX TEMP:  38;                             C1F1C2F2C3F3C4F4C5F5C6F6C7F7C8F8C9F9CaFaCbFbCcFcCdFdCe!


USA.gov is the U.S. government's official web portal to all federal, state and local government web resources and services.